Powrót do katalogu

MARECS B2

AktywnyŁącznośćMEO
NORAD 15386·PAYLOAD·🇪🇺 EU

Wystrzelony Nov 10, 1984 z Guiana Space Centre

Loading…

Następne Przeloty (najbliższe 24 godziny)

TLE

ŚwieżeSource: Space-Track

Epoka: Sep 14, 2026, 00:02 UTC

1 15386U 84114B   26257.00190309 -.00000250  00000-0  00000-0 0  9993
2 15386  13.3868 332.3483 0109930  57.0908 310.4776  0.95929924113531

Śledź MARECS B2 w czasie rzeczywistym z AllMySat

Download on the App Store